ATLAS CENTAUR 2 1 00694U 63047A 26121.77522387 .00003602 00000+0 42729-3 0 9999 2 00694 30.3549 258.9170 0546477 188.2469 170.8828 14.12340458139131 THOR AGENA D R/B 1 00733U 64002A 26121.75887676 .00000184 00000+0 82578-4 0 9997 2 00733 99.1181 137.9825 0033951 103.7079 256.7887 14.34045662245905 SL-3 R/B 1 00877U 64053B 26121.86456370 .00000175 00000+0 57989-4 0 9995 2 00877 65.0761 175.3329 0081220 275.5627 83.6214 14.61402685274561 SL-8 R/B 1 02802U 67045B 26121.72160769 .00000344 00000+0 10260-3 0 9996 2 02802 74.0110 249.0396 0065082 244.0724 115.3717 14.45659250 96689 SL-8 R/B 1 03230U 68040B 26121.67766313 .00002444 00000+0 18079-3 0 9998 2 03230 74.0316 205.3887 0024411 8.2098 351.9485 15.03591732 97976 OAO 2 1 03597U 68110A 26121.83397804 .00000222 00000+0 64817-4 0 9999 2 03597 34.9947 328.4966 0006304 264.3236 95.6736 14.47334536 26801 ISIS 1 1 03669U 69009A 26121.55225734 .00000134 00000+0 92893-4 0 9995 2 03669 88.4437 149.5255 1706771 342.4861 12.3610 11.30425706354507 SERT 2 1 04327U 70009A 26121.86583770 -.00000007 00000+0 47648-4 0 9998 2 04327 99.2823 62.0701 0005483 37.4714 32.5718 13.58736050787111 SL-3 R/B 1 05118U 71028B 26121.90455941 .00042276 00000+0 41451-3 0 9990 2 05118 81.2351 346.0803 0016032 91.7312 268.5780 15.65723390996984 ASTEX 1 1 05560U 71089A 26121.86195170 .00000354 00000+0 90229-4 0 9997 2 05560 92.7038 168.9298 0013187 263.7539 96.2165 14.50816766870014 SL-8 R/B 1 05730U 71119B 26121.86487898 .00012596 00000+0 65072-3 0 9999 2 05730 73.8862 76.2460 0545050 31.6651 331.6096 14.38811910663130 OAO 3 (COPERNICUS) 1 06153U 72065A 26121.80503441 .00000341 00000+0 74186-4 0 9999 2 06153 35.0072 354.6838 0007288 238.2572 191.3275 14.60035597853964 ATLAS CENTAUR R/B 1 06155U 72065B 26121.73052229 .00001404 00000+0 19381-3 0 9992 2 06155 35.0030 354.8762 0032699 96.8909 263.5513 14.77826747849116 SL-8 R/B 1 08459U 75112B 26121.85448706 .00000134 00000+0 52736-4 0 9990 2 08459 74.0598 281.1093 0015682 355.3702 4.7305 14.38227624639514 SL-3 R/B 1 10114U 77057B 26121.78562515 .00012884 00000+0 25766-3 0 9995 2 10114 97.5816 296.1217 0008474 93.3793 266.8425 15.46888965676530 SEASAT 1 1 10967U 78064A 26121.82706251 .00000330 00000+0 13039-3 0 9995 2 10967 108.0095 236.9895 0002755 257.1866 102.8972 14.46205310514199 SL-14 R/B 1 11267U 79011B 26121.83275610 .00000548 00000+0 51515-4 0 9996 2 11267 82.5261 46.1372 0014612 237.1276 122.8538 14.91973002536704 SL-8 R/B 1 11574U 79089B 26121.80486860 .00000233 00000+0 78185-4 0 9993 2 11574 74.0704 352.7223 0015424 154.6702 205.5214 14.42382119443765 SL-14 R/B 1 11672U 80005B 26121.81367887 .00000571 00000+0 55173-4 0 9997 2 11672 82.5133 256.8261 0015370 351.8465 8.2501 14.90988372484406 SL-8 R/B 1 12139U 81003B 26121.80846400 .00017285 00000+0 43149-3 0 9996 2 12139 82.9389 240.8177 0254426 354.0258 5.7949 15.13017725322706 SL-3 R/B 1 12465U 81046B 26121.77857433 .00013031 00000+0 29047-3 0 9995 2 12465 81.2323 225.9272 0018741 191.9583 168.1218 15.43261599446618 SL-3 R/B 1 12904U 81103B 26121.83875787 .00004439 00000+0 19340-3 0 9993 2 12904 81.1567 151.0675 0014475 106.8102 253.4718 15.21901722981312 SL-3 R/B 1 13068U 82013B 26121.89251602 .00005105 00000+0 21814-3 0 9996 2 13068 81.1716 98.3791 0022082 4.4711 355.6714 15.22453523412440 SL-3 R/B 1 13154U 82039B 26121.79409218 .00001798 00000+0 10718-3 0 9992 2 13154 81.1457 154.6964 0029001 143.5570 216.7638 15.10322323389650 SL-3 R/B 1 13403U 82079B 26121.81009433 .00005181 00000+0 20271-3 0 9996 2 13403 81.1433 130.3255 0023683 349.6295 10.4447 15.25377095385798 SL-14 R/B 1 13553U 82092B 26121.70097399 .00000511 00000+0 54502-4 0 9990 2 13553 82.5658 91.7957 0021681 122.8360 50.0811 14.86710921336805 SL-3 R/B 1 13819U 83010B 26121.59924444 .00016453 00000+0 31361-3 0 9992 2 13819 81.1001 297.2867 0015448 220.3735 139.6365 15.47909588366127 SL-3 R/B 1 14208U 83075B 26121.80662619 .00011977 00000+0 30363-3 0 9990 2 14208 97.6117 128.4458 0022271 44.0293 316.2721 15.39606797338320 COSMOS 1536 1 14699U 84013A 26121.83136683 .00007766 00000+0 31311-3 0 9992 2 14699 82.5461 54.9878 0016314 94.8810 265.4290 15.24536583280711 SL-14 R/B 1 14820U 84027B 26121.68680720 .00000448 00000+0 48303-4 0 9992 2 14820 82.5440 195.3192 0018688 153.6858 206.5312 14.86027298255500 SL-8 R/B 1 15483U 85006B 26121.55711920 .00000251 00000+0 91822-4 0 9995 2 15483 74.0446 163.8710 0017255 63.5088 97.6590 14.37814726161629 SL-12 R/B(2) 1 15772U 85042D 26121.86546520 .00000052 00000+0 44842-4 0 9991 2 15772 71.1089 335.3849 0033710 40.2746 330.6221 14.21996537121954 SL-14 R/B 1 15945U 85069B 26121.65531904 .00000442 00000+0 47100-4 0 9992 2 15945 82.5266 335.1372 0019320 21.4107 338.7913 14.86481838180700 SL-16 R/B 1 16182U 85097B 26121.87669535 .00000000 00000+0 24062-4 0 9995 2 16182 71.0048 28.5768 0007732 192.2767 235.5880 14.16605208 94769 SL-14 R/B 1 16496U 86006B 26121.68578378 .00000714 00000+0 72597-4 0 9995 2 16496 82.5292 209.8650 0077970 96.9590 264.0504 14.86899653157085 COSMOS 1743 1 16719U 86034A 26121.72465293 .00052528 00000+0 57165-3 0 9993 2 16719 82.5320 17.9799 0007170 90.6026 269.6054 15.63194445188524 SL-14 R/B 1 16792U 86046B 26121.81480080 .00000454 00000+0 49355-4 0 9992 2 16792 82.4848 29.9886 0024399 54.6640 305.6852 14.85639632134290 SL-14 R/B 1 16882U 86055B 26121.87485058 .00000458 00000+0 49836-4 0 9996 2 16882 82.5197 76.6665 0019559 151.9246 263.7938 14.85688096127263 AJISAI (EGS) 1 16908U 86061A 26121.89943421 -.00000092 00000+0 39866-4 0 9994 2 16908 50.0099 289.7302 0011416 63.3232 99.0344 12.44516068474621 SL-14 R/B 1 17567U 87024B 26121.82890779 .00000446 00000+0 47837-4 0 9995 2 17567 82.5306 42.8167 0019831 85.1303 275.2177 14.86180592 96024 COSMOS 1833 1 17589U 87027A 26121.81134911 -.00000134 00000+0 -45834-4 0 9991 2 17589 70.9158 214.3549 0022366 131.7419 228.5619 14.13032222 17826 SL-16 R/B 1 17590U 87027B 26121.70112860 -.00000069 00000+0 -10211-4 0 9998 2 17590 71.0018 164.7872 0003971 13.4525 346.6704 14.17172774 22854 SL-14 R/B 1 17912U 87038B 26121.85107604 .00000417 00000+0 45526-4 0 9996 2 17912 82.5013 246.7136 0018951 353.4970 6.5997 14.85415355 87120 COSMOS 1844 1 17973U 87041A 26121.71875222 -.00000243 00000+0 -10071-3 0 9995 2 17973 70.8979 282.3223 0032821 300.5488 59.2395 14.14557845 11082 SL-14 R/B 1 18153U 87055B 26121.75133389 .00000493 00000+0 53923-4 0 9995 2 18153 82.4966 299.0105 0020223 194.1070 165.9584 14.85674373 77811 COSMOS 1867 1 18187U 87060A 26121.81534508 -.00000022 00000+0 29483-4 0 9996 2 18187 65.0091 157.9253 0015558 281.2313 78.7023 14.31510457 27540 SL-14 R/B 1 18749U 88001B 26121.81764443 .00000394 00000+0 42599-4 0 9993 2 18749 82.5116 145.3995 0019493 65.0750 295.2489 14.85574790 49911 COSMOS 1933 1 18958U 88020A 26121.71434772 .00003715 00000+0 17899-3 0 9998 2 18958 82.5151 198.4418 0004558 36.6530 323.5015 15.18434434 58273 SL-3 R/B 1 19046U 88032B 26121.85174985 .00005363 00000+0 24659-3 0 9995 2 19046 97.5238 104.9602 0027163 51.4412 308.9251 15.20451972 60183 SL-16 R/B 1 19120U 88039B 26121.82716178 -.00000109 00000+0 -28701-4 0 9996 2 19120 71.0147 316.1891 0024030 259.3969 100.4450 14.19624697965920 COSMOS 1953 1 19210U 88050A 26121.50698429 .00009921 00000+0 34752-3 0 9993 2 19210 82.5047 105.0778 0008895 303.2584 56.7803 15.29306600 45857 SL-8 R/B 1 19257U 88053B 26121.84419065 .00000219 00000+0 79495-4 0 9996 2 19257 74.0496 14.4854 0020362 184.8110 245.6473 14.38944807984244 COSMOS 1975 1 19573U 88093A 26121.82030152 .00007803 00000+0 27773-3 0 9992 2 19573 82.5201 64.3111 0010950 354.0974 6.0135 15.28739821 27525 SL-14 R/B 1 19574U 88093B 26121.73602887 .00000413 00000+0 44670-4 0 9999 2 19574 82.5325 352.2598 0019623 219.4249 209.5165 14.85707650 8895 SL-16 R/B 1 19650U 88102B 26121.81032601 .00000263 00000+0 15691-3 0 9998 2 19650 71.0013 39.7225 0016272 286.9827 72.9513 14.16159116934416 INTERCOSMOS 24 1 20261U 89080A 26121.31015019 .00000498 00000+0 14087-3 0 9991 2 20261 82.6052 70.1366 1187621 170.6332 191.9247 12.59605989673426 SL-14 R/B 1 20262U 89080C 26121.52385396 .00000422 00000+0 11801-3 0 9991 2 20262 82.5900 139.2787 1230930 64.0534 308.2113 12.50533230666757 DELTA 1 R/B 1 20323U 89089B 26121.80012990 .00000282 00000+0 78736-4 0 9991 2 20323 97.0659 320.7742 0067882 315.6985 43.8792 14.50700880903436 ARIANE 40 R/B 1 20443U 90005H 26121.76510125 .00000274 00000+0 10055-3 0 9992 2 20443 98.2989 180.8176 0010993 50.7445 309.4718 14.39902675900443 DELTA 2 R/B(1) 1 20453U 90008B 26121.57408971 .00074103 00000+0 69257-3 0 9990 2 20453 35.6008 185.9586 0072093 35.1597 325.3870 15.62712329934395 COSMOS 2058 1 20465U 90010A 26121.73965221 .00003655 00000+0 21257-3 0 9992 2 20465 82.4681 355.1581 0010539 141.1480 219.0510 15.11734966950255 SL-14 R/B 1 20466U 90010B 26121.63168647 .00000455 00000+0 52054-4 0 9994 2 20466 82.5044 217.6597 0021125 123.2575 237.0668 14.83617185936336 SL-14 R/B 1 20511U 90018B 26121.63273935 .00000359 00000+0 42121-4 0 9997 2 20511 82.5223 173.6213 0014709 278.3249 81.6298 14.82188301930420 HST 1 20580U 90037B 26121.84637811 .00007533 00000+0 24246-3 0 9992 2 20580 28.4762 37.1607 0001847 357.1115 2.9470 15.30234007781466 SL-16 R/B 1 20625U 90046B 26121.57458565 .00000326 00000+0 19252-3 0 9993 2 20625 70.9989 186.8437 0015833 229.3222 130.6525 14.15018284855877 COSMOS 2084 1 20663U 90055A 26121.51618727 .00002051 00000+0 15402-3 0 9997 2 20663 62.7885 155.3613 0008853 214.5262 145.5265 15.05927523944278 SL-6 R/B(2) 1 20666U 90055D 26121.83805212 .00002475 00000+0 19160-3 0 9997 2 20666 62.7832 73.0744 0033342 357.9372 2.1584 15.03829902946183 SL-8 R/B 1 20775U 90078B 26121.63501696 .00027779 00000+0 80721-3 0 9995 2 20775 82.9058 203.6447 0355694 195.1500 163.8855 14.90658599817181 SL-8 R/B 1 21088U 91006B 26121.81671351 .00000156 00000+0 14110-3 0 9990 2 21088 82.9395 130.5337 0021061 244.7847 288.1875 13.77506182771380 OKEAN-3 1 21397U 91039A 26121.87015247 .00003772 00000+0 26269-3 0 9996 2 21397 82.5144 285.2921 0014799 145.6938 214.5248 15.05098711873037 COSMOS 2151 1 21422U 91042A 26121.84220110 .00001698 00000+0 13325-3 0 9997 2 21422 82.4989 32.3980 0010810 236.2001 123.8194 15.00314557871164 SL-14 R/B 1 21423U 91042B 26121.83213411 .00000331 00000+0 38760-4 0 9997 2 21423 82.4937 170.3657 0018462 68.7432 291.5752 14.81873873860945 ERS-1 1 21574U 91050A 26121.80292279 .00000325 00000+0 11832-3 0 9992 2 21574 98.7828 141.3626 0032751 46.3690 314.0205 14.39487730823376 ARIANE 40 R/B 1 21610U 91050F 26121.86634683 .00000282 00000+0 96965-4 0 9991 2 21610 98.1913 172.0791 0001762 270.9769 89.1220 14.42929056826668 INTERCOSMOS 25 1 21819U 91086A 26121.81220039 .00001014 00000+0 19664-3 0 9996 2 21819 82.5999 277.8747 1485590 2.4355 358.2990 12.12139072503123 SL-8 R/B 1 21876U 92008B 26121.75334766 .00000078 00000+0 64370-4 0 9994 2 21876 82.9286 228.3068 0034180 348.7260 175.5819 13.75971361716717 SL-8 R/B 1 21938U 92020B 26121.74161711 -.00000031 00000+0 -47842-4 0 9990 2 21938 82.9270 114.3574 0029763 147.3015 25.2267 13.75547943708429 USA 81 1 21949U 92023A 26121.68050063 .00000188 00000+0 62074-4 0 9990 2 21949 85.0041 100.8492 0001517 109.5624 250.5732 14.32384534102374 COSMOS 2219 1 22219U 92076A 26121.71602167 .00000262 00000+0 16204-3 0 9997 2 22219 71.0605 267.2161 0016453 122.6623 237.6090 14.14100380725871 SL-16 R/B 1 22220U 92076B 26121.30189068 .00000134 00000+0 90666-4 0 9997 2 22220 70.9994 77.5455 0012399 4.7463 100.5825 14.16865668729289 COSMOS 2221 1 22236U 92080A 26121.80118506 .00001769 00000+0 15352-3 0 9996 2 22236 82.5052 228.1960 0014522 20.1772 340.0021 14.96411234788738 SL-16 R/B 1 22285U 92093B 26121.81258211 .00000119 00000+0 85344-4 0 9990 2 22285 71.0219 252.7426 0006086 240.8114 119.2400 14.15461096720675 COSMOS 2228 1 22286U 92094A 26121.84857110 .00001822 00000+0 15375-3 0 9996 2 22286 82.5196 186.4201 0019369 121.1304 239.1822 14.97432739784011 SL-16 R/B 1 22566U 93016B 26121.64635223 -.00000144 00000+0 -49126-4 0 9999 2 22566 71.0038 103.9579 0012385 247.1323 112.8493 14.15307544709667 COSMOS 2242 1 22626U 93024A 26121.72044269 .00002115 00000+0 18210-3 0 9995 2 22626 82.5211 215.9877 0017639 124.6408 235.6480 14.96767529788321 SL-16 R/B 1 22803U 93059B 26121.83615358 .00000200 00000+0 12276-3 0 9994 2 22803 70.9902 259.0477 0015561 134.5244 225.7154 14.17241584687069 ARIANE 40 R/B 1 22830U 93061H 26121.62963875 .00000210 00000+0 92739-4 0 9998 2 22830 98.4837 189.4489 0011796 124.6624 235.5674 14.32887338701689 COSMOS 2278 1 23087U 94023A 26121.85254123 -.00000017 00000+0 15888-4 0 9992 2 23087 71.0548 63.8680 0010884 300.0779 59.9263 14.14389180652326 SL-16 R/B 1 23088U 94023B 26121.80438037 .00000236 00000+0 14651-3 0 9994 2 23088 70.9996 319.3421 0004893 235.1239 124.9424 14.15016762653604 SL-16 R/B 1 23343U 94074B 26121.84107963 .00000433 00000+0 64609-4 0 9997 2 23343 97.7028 150.4860 0007765 56.1878 122.6478 14.79462228695100 SL-16 R/B 1 23405U 94077B 26121.76525399 -.00000184 00000+0 -69775-4 0 9991 2 23405 70.9834 240.8240 0000344 34.5387 325.5758 14.15572347623744 ARIANE 40+ R/B 1 23561U 95021B 26121.78161793 .00000288 00000+0 10571-3 0 9992 2 23561 98.4424 192.5229 0006347 353.7499 118.3116 14.39807232626880 SL-16 R/B 1 23705U 95058B 26121.84548389 -.00000260 00000+0 -10881-3 0 9995 2 23705 71.0213 68.6532 0011235 28.9371 331.2372 14.15502989575377 SL-16 R/B 1 24298U 96051B 26121.85669853 .00000096 00000+0 78446-4 0 9995 2 24298 70.7617 62.7038 0012545 55.0382 305.1914 14.12429751529152 ORBVIEW 2 (SEASTAR) 1 24883U 97037A 26121.73928169 .00000250 00000+0 10304-3 0 9995 2 24883 98.8647 287.4807 0001135 254.1626 105.9434 14.35528862516081 SL-16 R/B 1 25400U 98043G 26121.84504722 .00000039 00000+0 35504-4 0 9991 2 25400 98.8335 75.6147 0009137 215.5928 144.4643 14.26060954446569 SL-16 R/B 1 25407U 98045B 26121.83032269 .00000094 00000+0 71356-4 0 9997 2 25407 71.0109 69.8180 0009332 296.2343 63.7820 14.16196689434622 ISS (ZARYA) 1 25544U 98067A 26121.81277072 .00006771 00000+0 13067-3 0 9996 2 25544 51.6311 169.6452 0007227 12.7206 347.3964 15.49051775564564 CZ-4B R/B 1 25732U 99025C 26121.65698272 .00000067 00000+0 53214-4 0 9992 2 25732 98.6525 164.6571 0036949 190.8357 280.6590 14.18275325395678 OKEAN-O 1 25860U 99039A 26121.64373483 .00000647 00000+0 91556-4 0 9997 2 25860 97.9348 180.9692 0001683 110.7979 249.3413 14.80410672442223 SL-16 R/B 1 25861U 99039B 26121.77653926 .00000526 00000+0 73353-4 0 9996 2 25861 97.9870 180.7650 0016192 85.9486 274.3577 14.81797425444724 DELTA 2 R/B 1 25876U 99041E 26121.88590273 .00000342 00000+0 94603-4 0 9999 2 25876 51.7607 88.7598 0502331 145.3014 218.1792 14.11938904370542 HELIOS 1B 1 25977U 99064A 26121.64306001 .00001665 00000+0 18830-3 0 9990 2 25977 98.1649 25.4325 0000500 125.0288 235.0974 14.87880860693133 TERRA 1 25994U 99068A 26121.88109278 .00000406 00000+0 91599-4 0 9992 2 25994 97.9494 173.2550 0002901 44.3768 128.7919 14.61065522402847 SL-16 R/B 1 26070U 00006B 26121.85956154 .00000162 00000+0 10624-3 0 9990 2 26070 71.0040 346.0391 0014403 102.3472 257.9264 14.15834021356082 TITAN 4B R/B 1 26474U 00047B 26121.82759782 .00003105 00000+0 19520-3 0 9992 2 26474 67.9891 251.0354 0042975 334.9819 24.9246 15.09951235400932 ENVISAT 1 27386U 02009A 26121.86304757 .00000099 00000+0 45856-4 0 9998 2 27386 98.3807 74.2234 0001132 88.2820 283.5438 14.39053540266821 IDEFIX & ARIANE 42P R/B 1 27422U 02021B 26121.84408714 .00000245 00000+0 10974-3 0 9994 2 27422 98.5926 59.8355 0012565 35.5396 324.6622 14.31059099251625 AQUA 1 27424U 02022A 26121.85516424 .00000917 00000+0 19249-3 0 9996 2 27424 98.4251 90.2237 0002107 89.4931 300.7126 14.62085183276504 CZ-4B R/B 1 27432U 02024C 26121.77826005 .00000058 00000+0 53035-4 0 9995 2 27432 98.8736 174.8902 0049314 231.4113 237.4374 14.14556706236749 MIDORI II (ADEOS-II) 1 27597U 02056A 26121.86656698 .00000288 00000+0 13078-3 0 9998 2 27597 98.7849 80.7425 0001091 138.5442 221.5822 14.29322672217898 H-2A R/B 1 27601U 02056E 26121.74566109 .00000355 00000+0 13882-3 0 9996 2 27601 98.3284 80.1217 0070370 4.6152 61.4521 14.33797924221717 CZ-4B R/B 1 28059U 03049C 26121.74651985 .00000434 00000+0 11072-3 0 9991 2 28059 98.6898 118.7477 0049266 70.2866 290.3635 14.55065510194313 CZ-2C R/B 1 28222U 04012C 26121.77498648 .00087200 00000+0 68030-3 0 9994 2 28222 97.7124 192.3419 0012960 116.3271 243.9323 15.71305111212596 SL-16 R/B 1 28353U 04021B 26121.70347242 -.00000201 00000+0 -79627-4 0 9998 2 28353 70.9979 121.2412 0006917 303.2443 56.8016 14.14602472130336 CZ-4B R/B 1 28415U 04035C 26121.83599882 .00008506 00000+0 29152-3 0 9996 2 28415 97.3407 155.4481 0032824 137.8139 222.5637 15.29912405188036 CZ-2C R/B 1 28480U 04046B 26121.70448943 .00000180 00000+0 82374-4 0 9993 2 28480 98.1969 33.3836 0139432 358.6433 1.4351 14.27012928116060 ARIANE 5 R/B 1 28499U 04049H 26121.71753329 .00001216 00000+0 13975-3 0 9995 2 28499 98.2692 292.1856 0084083 178.3706 181.7798 14.85368282153667 CZ-2D R/B 1 28738U 05024B 26121.79707685 .00048921 00000+0 49853-3 0 9995 2 28738 97.3528 139.0747 0005569 155.9876 204.1644 15.64959250148078 ALOS (DAICHI) 1 28931U 06002A 26121.87233084 .00001168 00000+0 20322-3 0 9995 2 28931 98.1295 77.5969 0002030 98.4082 261.7354 14.69953705 81295 H-2A R/B 1 28932U 06002B 26121.37809225 .00010916 00000+0 52953-3 0 9993 2 28932 98.2505 273.0112 0052153 63.0739 297.5807 15.17483710102429 RESURS-DK 1 1 29228U 06021A 26121.89210686 .00002543 00000+0 14970-3 0 9991 2 29228 69.9319 99.3725 0003866 333.7897 26.3072 15.13019234 95575 CZ-4B R/B 1 29507U 06046C 26121.83431126 .00004705 00000+0 23524-3 0 9993 2 29507 97.5492 166.5881 0034552 83.9837 276.5332 15.17410571 68108 CZ-2C R/B 1 31114U 07010B 26121.84533257 .00000110 00000+0 69240-4 0 9993 2 31114 98.4044 232.4756 0059859 138.8850 221.6861 14.20264225987265 COSMO-SKYMED 1 1 31598U 07023A 26121.81336179 .00004063 00000+0 35936-3 0 9999 2 31598 97.8866 313.2837 0001852 95.4221 264.7211 14.96880283 22857 COSMOS 2428 1 31792U 07029A 26121.63096468 -.00000210 00000+0 -86901-4 0 9996 2 31792 70.9394 92.2190 0008780 217.0388 143.0128 14.12943761971577 SL-16 R/B 1 31793U 07029B 26121.87153353 .00000270 00000+0 16463-3 0 9999 2 31793 70.9765 60.5889 0002545 268.3290 151.8484 14.14848705972899 KORONAS-FOTON 1 33504U 09003A 26121.77643910 .00012720 00000+0 27097-3 0 9995 2 33504 82.4321 220.6294 0009327 328.2774 31.7910 15.44738775953937 CZ-2C R/B 1 37731U 11030B 26121.84072105 .00000999 00000+0 13168-3 0 9993 2 37731 97.8625 78.0780 0052425 175.7536 245.6495 14.81368521797964 H-2A R/B 1 38341U 12025E 26121.79245100 .00003216 00000+0 29091-3 0 9994 2 38341 98.4798 93.1337 0045267 137.6937 222.7788 14.95470415756152 SHIJIAN-16 (SJ-16) 1 39358U 13057A 26121.85482209 .00001921 00000+0 18953-3 0 9995 2 39358 74.9707 84.4247 0016463 337.8687 22.1788 14.92491120679435 SL-4 R/B 1 39679U 14021B 26121.83737351 .00014829 00000+0 31401-3 0 9996 2 39679 51.6057 77.6460 0092358 297.4120 61.7492 15.40859960664464 ALOS-2 1 39766U 14029A 26121.81066000 .00001292 00000+0 17983-3 0 9994 2 39766 97.9212 219.6375 0001658 84.5841 275.5560 14.79480672644727 YAOGAN-29 1 41038U 15069A 26121.82660576 .00000291 00000+0 42373-4 0 9993 2 41038 98.0064 150.3797 0002089 130.9417 229.1977 14.83045341563757 ASTRO-H (HITOMI) 1 41337U 16012A 26121.84099598 .00003061 00000+0 17647-3 0 9999 2 41337 31.0009 13.4595 0009416 147.6079 212.5139 15.10312067560273 HXMT (HUIYAN) 1 42758U 17034A 26121.88518115 .00005362 00000+0 26660-3 0 9998 2 42758 43.0138 80.7752 0032338 213.5790 146.3009 15.18048950490627 SAOCOM 1A 1 43641U 18076A 26121.82380560 .00001137 00000+0 14931-3 0 9996 2 43641 97.8892 309.2451 0001618 90.3771 269.7628 14.82162109409232 H-2A R/B 1 43682U 18084L 26121.73349977 .00022739 00000+0 50473-3 0 9999 2 43682 98.8643 350.5323 0023728 195.7678 164.2829 15.43448295413958 SAOCOM 1B 1 46265U 20059A 26121.78756896 .00000011 00000+0 79639-5 0 9997 2 46265 97.8886 308.3025 0001558 80.9044 279.2346 14.82151099306615 CSS (TIANHE) 1 48274U 21035A 26121.78450867 .00021864 00000+0 23571-3 0 9994 2 48274 41.4675 244.4722 0005904 312.5812 47.4529 15.63133362285918 COSMOS 2550 1 48865U 21056A 26121.53108228 -.00000108 00000+0 25386-5 0 9994 2 48865 67.1429 241.0371 0008262 269.5318 90.4890 15.33829069271569 CZ-2C R/B 1 52794U 22058K 26121.74202509 .00051283 00000+0 64345-3 0 9998 2 52794 50.1881 44.5546 0037752 68.5177 291.9814 15.58303677218390 CZ-2C R/B 1 54039U 22132E 26121.52862690 .00050318 00000+0 47596-3 0 9991 2 54039 97.2926 126.6489 0013233 245.4720 114.5161 15.66729862198638 GSLV R/B 1 54149U 22138AN 26121.79845325 .00002413 00000+0 20636-3 0 9993 2 54149 87.3801 148.5638 0019609 324.4932 35.4993 14.97052763191872 XRISM 1 57800U 23137A 26121.72391480 .00006230 00000+0 34758-3 0 9992 2 57800 31.0022 300.4777 0007606 215.8680 144.1449 15.12068262145827 ACS3 1 59588U 24077B 26121.80501745 .00031099 00000+0 24036-1 0 9994 2 59588 97.1802 50.9856 0054928 342.9651 16.9669 13.91897329101589 HTV-X1 1 66174U 25241A 26121.43629956 .00015236 00000+0 16887-3 0 9993 2 66174 51.6347 176.7965 0007296 12.8755 347.2425 15.63161916 29035 SZ-21 MODULE 1 66515U 25246C 26121.65728473 .00047358 00000+0 34162-3 0 9991 2 66515 41.4737 236.2778 0003313 3.4411 356.6454 15.72691585 26403